Location: Huntsville
(41.2590°N, 111.7678°W)
Time: 14:23:12
(UTC+00:00)

deb Explorer IX - All Passes

Search period start: 22 June 2021 00:00
Search period end: 02 July 2021 00:00
Orbit: 542 x 1096 km, 38.8° (Epoch: 21 June)

Date Brightness Start Highest point End Pass type
(mag) Time Alt. Az. Time Alt. Az. Time Alt. Az.
22 Jun - 11:15:40 10° S 11:18:06 14° SSE 11:20:25 10° ESE visible
22 Jun - 13:00:13 10° SW 13:04:14 41° SSE 13:08:05 10° E daylight
22 Jun - 14:46:35 10° W 14:50:38 62° S 14:54:43 10° E daylight
22 Jun - 16:33:12 10° W 16:37:01 38° SSW 16:41:05 10° SE daylight
22 Jun - 18:21:05 10° WSW 18:23:09 13° SSW 18:25:18 10° S daylight
23 Jun - 10:51:39 10° S 10:54:16 15° SSE 10:56:46 10° ESE visible
23 Jun - 12:36:19 10° SW 12:40:27 41° SSE 12:44:19 10° E daylight
23 Jun - 14:22:45 10° W 14:26:51 62° S 14:30:54 10° E daylight
23 Jun - 16:09:27 10° W 16:13:13 38° SSW 16:17:11 10° SE daylight
23 Jun - 17:57:27 10° WSW 17:59:20 13° SSW 18:01:15 10° S daylight
24 Jun - 10:27:36 10° S 10:30:26 16° SSE 10:33:05 10° ESE visible
24 Jun - 12:12:23 10° SW 12:16:39 42° SSE 12:20:34 10° E daylight
24 Jun - 13:58:55 10° W 14:03:04 63° S 14:07:05 10° E daylight
24 Jun - 15:45:39 10° W 15:49:26 37° SSW 15:53:19 10° SE daylight
24 Jun - 17:33:49 10° SW 17:35:29 12° SSW 17:37:13 10° S daylight
25 Jun - 10:03:31 10° S 10:06:35 16° SSE 10:09:26 10° ESE visible
25 Jun - 11:48:27 10° SW 11:52:50 43° SSE 11:56:49 10° E daylight
25 Jun - 13:35:02 10° W 13:39:17 63° S 13:43:18 10° E daylight
25 Jun - 15:21:50 10° W 15:25:38 37° SSW 15:29:28 10° SE daylight
25 Jun - 17:10:09 10° SW 17:11:40 12° SSW 17:13:12 10° S daylight
26 Jun - 09:39:26 10° S 09:42:43 17° SSE 09:45:46 10° ESE visible
26 Jun - 11:24:28 10° SW 11:29:01 44° SSE 11:33:04 10° E visible
26 Jun - 13:11:08 10° W 13:15:29 63° S 13:19:31 10° E daylight
26 Jun - 14:58:00 10° W 15:01:50 37° SSW 15:05:38 10° SE daylight
26 Jun - 16:46:28 10° SW 16:47:50 11° SSW 16:49:13 10° SSW daylight
27 Jun - 09:15:19 10° SSW 09:18:51 18° SSE 09:22:06 10° ESE visible
27 Jun - 11:00:28 10° WSW 11:05:11 45° SSE 11:09:20 10° E visible
27 Jun - 12:47:12 10° W 12:51:41 64° S 12:55:45 10° E daylight
27 Jun - 14:34:09 10° W 14:38:03 37° SSW 14:41:49 10° SE daylight
27 Jun - 16:22:44 10° SW 16:24:00 11° SSW 16:25:17 10° SSW daylight
28 Jun - 08:51:11 10° SSW 08:54:58 19° SSE 08:58:24 10° ESE visible
28 Jun - 10:36:26 10° WSW 10:41:20 46° SSE 10:45:36 10° E visible
28 Jun - 12:23:15 10° W 12:27:52 64° S 12:32:00 10° E daylight
28 Jun - 14:10:16 10° W 14:14:14 38° SSW 14:18:01 10° SE daylight
28 Jun - 15:58:57 10° SW 16:00:10 11° SW 16:01:24 10° SSW daylight
29 Jun - 08:27:02 10° SSW 08:31:04 20° SSE 08:34:42 10° ESE visible
29 Jun - 10:12:23 10° WSW 10:17:28 47° SSE 10:21:52 10° E visible
29 Jun - 11:59:16 10° W 12:04:02 65° S 12:08:15 10° E daylight
29 Jun - 13:46:21 10° W 13:50:26 38° SSW 13:54:14 10° SE daylight
29 Jun - 15:35:07 10° SW 15:36:20 11° SW 15:37:33 10° SSW daylight
30 Jun - 08:02:52 10° SSW 08:07:08 21° SSE 08:10:59 10° ESE visible
30 Jun - 09:48:18 10° WSW 09:53:35 48° SSE 09:58:08 10° E visible
30 Jun - 11:35:15 10° W 11:40:12 66° S 11:44:30 10° E daylight
30 Jun - 13:22:25 10° W 13:26:36 39° SSW 13:30:28 10° SE daylight
30 Jun - 15:11:12 10° SW 15:12:30 11° SW 15:13:46 10° SSW daylight
01 Jul - 07:38:42 10° SSW 07:43:12 21° SSE 07:47:14 10° ESE visible
01 Jul - 09:24:13 10° WSW 09:29:41 49° SSE 09:34:23 10° E visible
01 Jul - 11:11:13 10° W 11:16:20 66° S 11:20:45 10° E visible
01 Jul - 12:58:27 10° W 13:02:47 39° SSW 13:06:42 10° SE daylight
01 Jul - 14:47:15 10° SW 14:48:39 11° SW 14:50:02 10° SSW daylight
